Flag for Vietnam Weather past 2 weeks in Ho Chi Minh, Vietnam

Now
75 °F

Passing clouds.


Feels Like: 73 °F
Forecast: 76 / 87 °F
Wind: 9 mph from Southwest

Location: Ho Chi Minh

Current Time: Jul 25, 2014 at 1:38:19 AM

Latest Report: Jul 25, 2014 at 1:00 AM


Visibility: N/A

Pressure: 29.77 "Hg

Humidity: 100%

Dew point: 75 °F

Location of Ho Chi MinhLocation

Historic Weather in Ho Chi Minh — Graph

°F

Ho Chi Minh temperature yesterday

Maximum temperature yesterday: 90 °F (at 12:30 PM)
Minimum temperature yesterday: 75 °F (at 12:30 AM)
Average temperature yesterday: 79 °F

Past Weeks' High & Low Weather Summary

 TemperatureHumidityPressure
High91 °F (Jul 11, 12:30 PM)100% (Jul 10, 12:00 AM)29.86 "Hg (Jul 10, 12:00 AM)
Low73 °F (Jul 13, 2:30 AM)52% (Jul 11, 3:00 PM)29.62 "Hg (Jul 17, 2:30 PM)
Average81 °F90%29.75 "Hg
* Reported Midnight between Jul 9 and Jul 10 — Jul 25 12:30 AM, Ho Chi Minh, Weather by CustomWeather, © 2014

Note: Actual official high and low records may vary slightly from our data, if they occured in-between our weather recording intervals... More about our weather records

Advertising

Ho Chi Minh weather history for previous 24 hours

 ConditionsComfort  
Time TempWeatherWind HumidityBarometerVisibility
12:30 AM
Jul 25
77 °FPassing clouds.7 mph100%29.77 "HgN/A
12:00 AM79 °FPassing clouds.9 mph94%29.77 "HgN/A
11:30 PM
Jul 24
77 °FPassing clouds.10 mph100%29.80 "HgN/A
11:00 PM77 °FPassing clouds.9 mph100%29.80 "HgN/A
10:30 PM79 °FPassing clouds.9 mph100%29.80 "HgN/A
10:00 PM77 °FPassing clouds.8 mph100%29.80 "HgN/A
9:30 PM79 °FPassing clouds.6 mph100%29.80 "HgN/A
9:00 PM79 °FPassing clouds.7 mph100%29.80 "HgN/A
8:30 PM79 °FPassing clouds.8 mph100%29.77 "HgN/A
8:00 PM79 °FPassing clouds.9 mph100%29.77 "HgN/A
7:30 PM79 °FPassing clouds.9 mph94%29.77 "HgN/A
7:00 PM79 °FPassing clouds.10 mph94%29.74 "HgN/A
6:30 PM79 °FPassing clouds.12 mph94%29.74 "HgN/A
6:00 PM81 °FPartly sunny.13 mph94%29.74 "HgN/A
5:30 PM81 °FPartly sunny.16 mph94%29.71 "HgN/A
5:00 PM82 °FPartly sunny.14 mph89%29.71 "HgN/A
4:30 PM81 °FPartly sunny.13 mph94%29.68 "HgN/A
4:00 PM81 °FPartly sunny.10 mph89%29.68 "HgN/A
3:30 PM81 °FPartly sunny.12 mph94%29.71 "HgN/A
3:00 PM79 °FLight rain. Broken clouds.13 mph100%29.68 "HgN/A
2:30 PM77 °FThunderstorms. Broken clouds.9 mph100%29.71 "Hg5 mi
2:00 PM79 °FSprinkles. Broken clouds.17 mph100%29.71 "Hg4 mi
1:30 PM90 °FScattered clouds.13 mph63%29.71 "HgN/A
12:30 PM90 °FBroken clouds.16 mph63%29.74 "HgN/A
12:00 PM88 °FBroken clouds.20 mph62%29.77 "HgN/A
11:30 AM86 °FPartly sunny.15 mph70%29.77 "HgN/A
11:00 AM84 °FPartly sunny.16 mph74%29.77 "HgN/A
10:30 AM84 °FPartly sunny.17 mph74%29.77 "HgN/A
10:00 AM84 °FPartly sunny.14 mph84%29.77 "HgN/A
9:30 AM82 °FPartly sunny.15 mph84%29.80 "HgN/A
9:00 AM82 °FScattered clouds.17 mph79%29.77 "HgN/A
8:30 AM82 °FScattered clouds.14 mph84%29.77 "HgN/A
7:30 AM81 °FScattered clouds.10 mph94%29.77 "HgN/A
7:00 AM79 °FScattered clouds.9 mph100%29.74 "HgN/A
6:30 AM79 °FPartly sunny.9 mph100%29.74 "HgN/A
6:00 AM75 °FScattered clouds.8 mph100%29.74 "HgN/A
5:30 AM75 °FPassing clouds.9 mph100%29.74 "HgN/A
5:00 AM75 °FPassing clouds.7 mph100%29.74 "HgN/A
4:30 AM75 °FPassing clouds.8 mph100%29.74 "HgN/A
4:00 AM75 °FPassing clouds.8 mph100%29.71 "HgN/A
3:30 AM75 °FPassing clouds.8 mph100%29.71 "HgN/A
3:00 AM75 °FPassing clouds.10 mph100%29.74 "HgN/A
2:30 AM75 °FPassing clouds.13 mph100%29.74 "HgN/A
2:00 AM75 °FPartly cloudy.8 mph100%29.74 "HgN/A
1:30 AM75 °FPartly cloudy.7 mph100%29.74 "HgN/A
1:00 AM75 °FPartly cloudy.8 mph100%29.77 "HgN/A
Weather by CustomWeather, © 2014

See weather overviewHow to use our weather pages